Back to catalog

CZ-4C R/B

AlivePO
NORAD 50467·ROCKET BODY·🇨🇳 China

Launched Dec 26, 2021 from Taiyuan Satellite Launch Center

Loading…

Next Passes (next 24 hours)

TLE

FreshSource: Space-Track

Epoch: Sep 14, 2026, 12:28 UTC

1 50467U 21131C   26257.51987748  .00000264  00000-0  52044-4 0  9992
2 50467  98.7304  89.5035 0109805 111.9280 249.3638 14.67898153252466

Track CZ-4C R/B in real time with AllMySat

Download on the App Store